Weather History for HKMO - February, 2013

Change the Weather History Date:

Wednesday, February 27, 2013

  Actual Average Record
Temperature  
Mean Temperature 82 °F -  
Max Temperature 90 °F 93 °F 96 °F (2007)
Min Temperature 75 °F 73 °F 73 °F (2001)
Cooling Degree Days 18    
Growing Degree Days 32 (Base 50)    
Moisture  
Dew Point 73 °F    
Average Humidity 73    
Maximum Humidity 89    
Minimum Humidity 46    
Precipitation  
Precipitation 0.00 in 0.07 in - ()
Sea Level Pressure  
Sea Level Pressure 29.95 in    
Wind  
Wind Speed 4 mph ()    
Max Wind Speed 14 mph    
Max Gust Speed -    
Visibility 8.1 miles    
Events Rain    
Averages and records for this station are not official NWS values.
T = Trace of Precipitation, MM = Missing Value Source: Averaged Metar Reports

Daily Weather History Graph

Daily Weather History Graph

Search for Another Location

Airport or City:

Trip Planner

Search our weather history database for the weather conditions in past years. The results will help you decide how hot, cold, wet, or windy it might be!

Date:

Astronomy

Feb. 27, 2013 Rise Set
Actual Time 6:28 AM EAT 6:39 PM EAT
Civil Twilight 6:07 AM EAT 7:00 PM EAT
Nautical Twilight 5:43 AM EAT 7:25 PM EAT
Astronomical Twilight 5:18 AM EAT 7:49 PM EAT
Moon 7:52 PM EAT (2/27) 7:28 AM EAT (2/27)
Length of Visible Light 12h 53m
Length of Day
12h 11m
Full, 97% of the Moon is Illuminated
Feb 27
Full
Mar 5
Last Quarter
Mar 11
New
Mar 19
First Quarter
Mar 27
Full

Hourly Weather History & Observations

Time (EAT) Temp. Heat Index Dew Point Humidity Pressure Visibility Wind Dir Wind Speed Gust Speed Precip Events Conditions
12:00 AM 80.6 °F 86.2 °F 75.2 °F 84% 29.98 in 6.2 mi Calm Calm - N/A   Scattered Clouds
1:00 AM 78.8 °F - 73.4 °F 83% 29.95 in 6.2 mi Calm Calm - N/A   Scattered Clouds
2:00 AM 78.8 °F - 73.4 °F 83% 29.95 in 6.2 mi Calm Calm - N/A   Partly Cloudy
3:00 AM 78 °F - 74 °F 83% 29.94 in 19 mi Calm Calm - -   Scattered Clouds
3:00 AM 78.8 °F - 73.4 °F 83% 29.95 in 6.2 mi Calm Calm - N/A   Partly Cloudy
4:00 AM 77.0 °F - 73.4 °F 89% 29.92 in 6.2 mi Calm Calm - N/A   Partly Cloudy
5:00 AM 77.0 °F - 73.4 °F 89% 29.95 in 6.2 mi Calm Calm - N/A   Partly Cloudy
6:00 AM 77.0 °F - 73.4 °F 89% 29.95 in 6.2 mi Calm Calm - N/A   Partly Cloudy
7:00 AM 77.0 °F - 73.4 °F 89% 29.98 in 6.2 mi North 4.6 mph - N/A   Scattered Clouds
8:00 AM 78.8 °F - 75.2 °F 89% 30.01 in 6.2 mi North 4.6 mph - N/A Rain Light Rain Showers
9:00 AM 83 °F - 73 °F 64% 30.01 in 19 mi ENE 5.8 mph - -   Partly Cloudy
9:00 AM 84.2 °F 90.9 °F 73.4 °F 70% 30.01 in 6.2 mi ENE 5.8 mph - N/A   Scattered Clouds
10:00 AM 87.8 °F 93.8 °F 71.6 °F 58% 30.01 in 6.2 mi NNW 6.9 mph - N/A   Mostly Cloudy
11:00 AM 86.0 °F 91.8 °F 71.6 °F 62% 30.01 in 6.2 mi East 11.5 mph - N/A   Mostly Cloudy
12:00 PM 89.6 °F 96.2 °F 71.6 °F 55% 29.98 in 6.2 mi East 11.5 mph - N/A   Mostly Cloudy
1:00 PM 89.6 °F 94.7 °F 69.8 °F 52% 29.95 in 6.2 mi East 11.5 mph - N/A   Scattered Clouds
2:00 PM 89.6 °F 96.2 °F 71.6 °F 55% 29.92 in 6.2 mi NE 8.1 mph - N/A   Partly Cloudy
3:00 PM 89 °F - 71 °F 46% 29.90 in 19 mi ENE 13.8 mph - -   Scattered Clouds
3:00 PM 89.6 °F 96.2 °F 71.6 °F 55% 29.89 in 6.2 mi ENE 13.8 mph - N/A   Partly Cloudy
4:00 PM 87.8 °F 93.8 °F 71.6 °F 58% 29.89 in 6.2 mi East 13.8 mph - N/A   Partly Cloudy
5:00 PM 86.0 °F 91.8 °F 71.6 °F 62% 29.89 in 6.2 mi East 11.5 mph - N/A   Partly Cloudy
7:00 PM 82.4 °F 88.2 °F 73.4 °F 74% 29.89 in 6.2 mi East 10.4 mph - N/A   Partly Cloudy
8:00 PM 80.6 °F 85.4 °F 73.4 °F 79% 29.92 in 6.2 mi ENE 9.2 mph - N/A   Partly Cloudy
9:00 PM 80 °F - 74 °F 77% 29.92 in 19 mi East 5.8 mph - -   Scattered Clouds
9:00 PM 80.6 °F 85.4 °F 73.4 °F 79% 29.92 in 6.2 mi East 5.8 mph - N/A   Partly Cloudy
10:00 PM 80.6 °F 85.4 °F 73.4 °F 79% 29.95 in 6.2 mi East 4.6 mph - N/A   Partly Cloudy
11:00 PM 80.6 °F 85.4 °F 73.4 °F 79% 29.95 in 6.2 mi ENE 4.6 mph - N/A   Partly Cloudy